Location: Unspecified
(0.0000°N, 0.0000°E)
Time: 06:37:48
(UTC+00:00)

Vanguard 2 Rocket - Pass Details

Date: 13 October 2022
Orbit: 555 x 3321 km, 32.9° (Epoch: 06 December)

Event Time Altitude Azimuth Distance (km) Brightness Sun altitude
Rises 14:26:47 0° 222° (SW) 4,894 11.1 49.2°
Reaches altitude 10° 14:29:37 10° 217° (SW) 4,217 10.9 48.5°
Maximum altitude 14:41:49 56° 141° (SE) 2,997 9.9 45.5°
Drops below altitude 10° 15:00:31 10° 68° (ENE) 6,233 10.8 40.9°
Sets 15:05:44 0° 65° (ENE) 7,303 11.1 39.7°
